Overview Statistics Trail Chart Weather Telemetry Raw packets
 

This is the latest recevied weather packets stored in our database for station/object LU3HGB-WX. If no packets are shown the sender has not sent any weather packets the latest 10 day(s).

<< 54 55 56 57 58 59 60 >>
Time Temp. Humidity Pressure Rain* Wind** Luminosity Snow
1788313059 8.33° C 64% 1019 hPa 0 mm - 0 W/m² -
1788312759 8.33° C 66% 1019 hPa 0 mm - 0 W/m² -
1788312460 7.78° C 68% 1019 hPa 0 mm - 0 W/m² -
1788312159 7.78° C 69% 1019 hPa 0 mm - 0 W/m² -
1788311859 8.33° C 66% 1019 hPa 0 mm - 0 W/m² -
1788311559 7.78° C 67% 1019 hPa 0 mm - 0 W/m² -
1788311259 8.33° C 68% 1019 hPa 0 mm - 0 W/m² -
1788310961 8.33° C 65% 1019 hPa 0 mm - 0 W/m² -
1788310660 8.33° C 65% 1019 hPa 0 mm - 0 W/m² -
1788310359 8.33° C 67% 1019 hPa 0 mm - 0 W/m² -
1788310059 8.89° C 64% 1019 hPa 0 mm - 0 W/m² -
1788309760 8.89° C 65% 1019 hPa 0 mm - 0 W/m² -
1788309461 8.33° C 67% 1019 hPa 0 mm - 0 W/m² -
1788309160 8.89° C 66% 1019 hPa 0 mm - 0 W/m² -
1788308860 9.44° C 64% 1019 hPa 0 mm - 0 W/m² -
1788308559 9.44° C 64% 1019 hPa 0 mm - 0 W/m² -
1788308260 10° C 61% 1019 hPa 0 mm - 0 W/m² -
1788307960 10° C 63% 1019 hPa 0 mm - 0 W/m² -
1788307661 10.56° C 61% 1018 hPa 0 mm - 0 W/m² -
1788307360 10.56° C 59% 1018 hPa 0 mm - 0 W/m² -
1788307060 11.11° C 57% 1018 hPa 0 mm - 0 W/m² -
1788306759 11.11° C 56% 1018 hPa 0 mm - 0 W/m² -
1788306459 11.11° C 57% 1018 hPa 0 mm - 0 W/m² -
1788306159 11.11° C 57% 1018 hPa 0 mm - 0 W/m² -
1788305859 11.11° C 58% 1018 hPa 0 mm - 0 W/m² -

* Rain latest hour (hover to see other rain measurements)
** Current wind speed in m/s (hover to see current wind gust speed)